,,,PA_Meas_PMT16A,,PR_Meas_QMR101_102,,RH_Meas_QMH101,,SR_Meas_QMS101,,TA_Meas_QMH101,,GenWind,,GenWind,
date,time,status,PA,status,PR,status,RH,status,SR,status,TA,status,DirAvg,status,SpdAvg,
2009-08-13, 00:00:05,VALID,1001.5,VALID,0,VALID,82.5906,VALID,0,VALID,24.7551,VALID,164,VALID,1.58281,
2009-08-13, 00:01:05,VALID,1001.46,VALID,0,VALID,82.3694,VALID,0,VALID,24.7551,VALID,164,VALID,2.09531,
2009-08-13, 00:02:05,VALID,1001.44,VALID,0,VALID,82.4533,VALID,0,VALID,24.7551,VALID,164,VALID,2.0293,
2009-08-13, 00:03:05,VALID,1001.39,VALID,0,VALID,82.7585,VALID,0,VALID,24.716,VALID,165,VALID,1.72539,
2009-08-13, 00:04:05,VALID,1001.42,VALID,0,VALID,82.8348,VALID,0,VALID,24.677,VALID,164,VALID,2.03789,
2009-08-13, 00:05:05,VALID,1001.39,VALID,0,VALID,82.8806,VALID,0,VALID,24.6575,VALID,164,VALID,1.8918,
2009-08-13, 00:06:05,VALID,1001.37,VALID,0,VALID,82.377,VALID,0,VALID,24.677,VALID,143,VALID,2.69297,
2009-08-13, 00:07:05,VALID,1001.33,VALID,0,VALID,82.0566,VALID,0,VALID,24.7551,VALID,156,VALID,2.02148,
2009-08-13, 00:08:05,VALID,1001.34,VALID,0,VALID,82.2549,VALID,0,VALID,24.7727,VALID,172,VALID,2.10898,
2009-08-13, 00:09:05,VALID,1001.37,VALID,0,VALID,82.7203,VALID,0,VALID,24.7941,VALID,166,VALID,1.61445,
2009-08-13, 00:10:05,VALID,1001.35,VALID,0,VALID,82.5296,VALID,0,VALID,24.7356,VALID,148,VALID,1.3668,
2009-08-13, 00:11:05,VALID,1001.36,VALID,0,VALID,82.9187,VALID,0,VALID,24.6575,VALID,162,VALID,1.48438,
2009-08-13, 00:12:05,VALID,1001.38,VALID,0,VALID,83.3612,VALID,0,VALID,24.6184,VALID,161,VALID,0.853516,
2009-08-13, 00:13:05,VALID,1001.33,VALID,0,VALID,83.407,VALID,0,VALID,24.5599,VALID,149,VALID,0.553125,
2009-08-13, 00:14:05,VALID,1001.33,VALID,0,VALID,83.4833,VALID,0,VALID,24.5209,VALID,148,VALID,0.752734,
2009-08-13, 00:15:05,VALID,1001.37,VALID,0,VALID,83.5749,VALID,0,VALID,24.5013,VALID,154,VALID,1.61484,
2009-08-13, 00:16:05,VALID,1001.32,VALID,0,VALID,83.5138,VALID,0,VALID,24.4995,VALID,160,VALID,0.922656,
2009-08-13, 00:17:05,VALID,1001.32,VALID,0,VALID,83.6512,VALID,0,VALID,24.5209,VALID,165,VALID,0.642969,
2009-08-13, 00:18:05,VALID,1001.28,VALID,0,VALID,83.6512,VALID,0,VALID,24.4995,VALID,165,VALID,0.731641,
2009-08-13, 00:19:05,VALID,1001.27,VALID,0,VALID,83.4604,VALID,0,VALID,24.5209,VALID,153,VALID,1.24336,
2009-08-13, 00:20:05,VALID,1001.24,VALID,0,VALID,83.1323,VALID,0,VALID,24.5599,VALID,136,VALID,1.53047,
2009-08-13, 00:21:05,VALID,1001.21,VALID,0,VALID,82.5754,VALID,0,VALID,24.5989,VALID,118,VALID,0.913281,
2009-08-13, 00:22:05,VALID,1001.17,VALID,0,VALID,82.3923,VALID,0,VALID,24.6184,VALID,121,VALID,1.34727,
2009-08-13, 00:23:05,VALID,1001.16,VALID,0,VALID,82.5143,VALID,0,VALID,24.6184,VALID,125,VALID,1.02539,
2009-08-13, 00:24:05,VALID,1001.18,VALID,0,VALID,82.728,VALID,0,VALID,24.5775,VALID,143,VALID,1.52422,
2009-08-13, 00:25:05,VALID,1001.16,VALID,0,VALID,82.8806,VALID,0,VALID,24.5599,VALID,152,VALID,1.08398,
2009-08-13, 00:26:05,VALID,1001.15,VALID,0,VALID,83.0789,VALID,0,VALID,24.5599,VALID,142,VALID,1.02383,
2009-08-13, 00:27:05,VALID,1001.15,VALID,0,VALID,83.1629,VALID,0,VALID,24.5404,VALID,139,VALID,0.876953,
2009-08-13, 00:28:05,VALID,1001.15,VALID,0,VALID,83.262,VALID,0,VALID,24.5209,VALID,141,VALID,0.994141,
2009-08-13, 00:29:05,VALID,1001.13,VALID,0,VALID,83.3917,VALID,0,VALID,24.4818,VALID,149,VALID,1.14141,
2009-08-13, 00:30:05,VALID,1001.15,VALID,0,VALID,83.8343,VALID,0,VALID,24.4428,VALID,154,VALID,1.20625,
2009-08-13, 00:31:05,VALID,1001.09,VALID,0,VALID,83.9792,VALID,0,VALID,24.4037,VALID,136,VALID,0.653906,
2009-08-13, 00:32:05,VALID,1001.12,VALID,0,VALID,84.1242,VALID,0,VALID,24.3238,VALID,133,VALID,0.594141,
2009-08-13, 00:33:05,VALID,1001.15,VALID,0,VALID,84.3989,VALID,0,VALID,24.3062,VALID,156,VALID,0.764063,
2009-08-13, 00:34:05,VALID,1001.14,VALID,0,VALID,84.7803,VALID,0,VALID,24.2671,VALID,156,VALID,0.926953,
2009-08-13, 00:35:05,VALID,1001.14,VALID,0,VALID,84.7727,VALID,0,VALID,24.2476,VALID,149,VALID,0.555859,
2009-08-13, 00:36:05,VALID,1001.14,VALID,0,VALID,84.7346,VALID,0,VALID,24.2476,VALID,124,VALID,0.779688,
2009-08-13, 00:37:05,VALID,1001.15,VALID,0,VALID,84.6888,VALID,0,VALID,24.2281,VALID,125,VALID,0.955469,
2009-08-13, 00:38:05,VALID,1001.13,VALID,0,VALID,84.6812,VALID,0,VALID,24.15,VALID,124,VALID,0.916016,
2009-08-13, 00:39:05,VALID,1001.13,VALID,0,VALID,84.8795,VALID,0,VALID,24.111,VALID,124,VALID,0.788672,
2009-08-13, 00:40:05,VALID,1001.17,VALID,0,VALID,85.2534,VALID,0,VALID,24.072,VALID,136,VALID,0.744922,
2009-08-13, 00:41:05,VALID,1001.13,VALID,0,VALID,85.3678,VALID,0,VALID,24.0525,VALID,135,VALID,0.609375,
2009-08-13, 00:42:05,VALID,1001.11,VALID,0,VALID,85.4365,VALID,0,VALID,24.0134,VALID,134,VALID,0.784375,
2009-08-13, 00:43:05,VALID,1001.12,VALID,0,VALID,85.5357,VALID,0,VALID,24.0153,VALID,138,VALID,0.730469,
2009-08-13, 00:44:05,VALID,1001.11,VALID,0,VALID,85.4975,VALID,0,VALID,23.9762,VALID,150,VALID,0.802734,
2009-08-13, 00:45:05,VALID,1001.1,VALID,0,VALID,85.6883,VALID,0,VALID,23.9762,VALID,152,VALID,0.902344,
2009-08-13, 00:46:05,VALID,1001.1,VALID,0,VALID,85.6196,VALID,0,VALID,23.9549,VALID,139,VALID,1.25547,
2009-08-13, 00:47:05,VALID,1001.08,VALID,0,VALID,85.5204,VALID,0,VALID,23.9957,VALID,128,VALID,1.27109,
2009-08-13, 00:48:05,VALID,1001.05,VALID,0,VALID,85.3678,VALID,0,VALID,23.9744,VALID,100,VALID,1.12383,
2009-08-13, 00:49:05,VALID,1001.06,VALID,0,VALID,85.3144,VALID,0,VALID,23.9939,VALID,83,VALID,1.15352,
2009-08-13, 00:50:05,VALID,1001.08,VALID,0,VALID,84.9863,VALID,0,VALID,24.0153,VALID,81,VALID,0.916406,
2009-08-13, 00:51:05,VALID,1001.07,VALID,0,VALID,85.0932,VALID,0,VALID,23.9372,VALID,81,VALID,0.587891,
2009-08-13, 00:52:05,VALID,1001.09,VALID,0,VALID,85.3144,VALID,0,VALID,23.8591,VALID,103,VALID,0.438281,
2009-08-13, 00:53:05,VALID,1001.09,VALID,0,VALID,86.2376,VALID,0,VALID,23.8006,VALID,170,VALID,0.497656,
2009-08-13, 00:54:05,VALID,1001.05,VALID,0,VALID,86.6267,VALID,0,VALID,23.7616,VALID,170,VALID,0.297266,
2009-08-13, 00:55:05,VALID,1001.03,VALID,0,VALID,86.8556,VALID,0,VALID,23.742,VALID,170,VALID,0.382031,
2009-08-13, 00:56:05,VALID,1001.03,VALID,0,VALID,87.0463,VALID,0,VALID,23.6622,VALID,170,VALID,0.121484,
2009-08-13, 00:57:05,VALID,1000.99,VALID,0,VALID,86.9472,VALID,0,VALID,23.6445,VALID,170,VALID,0.182031,
2009-08-13, 00:58:05,VALID,1000.98,VALID,0,VALID,87.0158,VALID,0,VALID,23.5451,VALID,12,VALID,0.79375,
2009-08-13, 00:59:05,VALID,1001.02,VALID,0,VALID,87.3973,VALID,0,VALID,23.4688,VALID,12,VALID,0.500781,
2009-08-13, 01:00:05,VALID,1001.01,VALID,0,VALID,87.5041,VALID,0,VALID,23.3695,VALID,12,VALID,0.251172,
2009-08-13, 01:01:05,VALID,1001.03,VALID,0,VALID,87.6949,VALID,0,VALID,23.2915,VALID,12,VALID,0.194141,
2009-08-13, 01:02:05,VALID,1001.03,VALID,0,VALID,87.7788,VALID,0,VALID,23.2134,VALID,12,VALID,0.0117188,
2009-08-13, 01:03:05,VALID,1000.99,VALID,0,VALID,88.1755,VALID,0,VALID,23.1549,VALID,12,VALID,0,
2009-08-13, 01:04:05,VALID,1000.96,VALID,0,VALID,88.824,VALID,0,VALID,23.1371,VALID,12,VALID,0.253125,
2009-08-13, 01:05:05,VALID,1000.96,VALID,0,VALID,88.9919,VALID,0,VALID,23.1371,VALID,12,VALID,0.169141,
2009-08-13, 01:06:05,VALID,1000.97,VALID,0,VALID,89.0606,VALID,0,VALID,23.1371,VALID,12,VALID,0,
2009-08-13, 01:07:05,VALID,1000.94,VALID,0,VALID,89.3123,VALID,0,VALID,23.0981,VALID,92,VALID,0.542188,
2009-08-13, 01:08:05,VALID,1000.91,VALID,0,VALID,89.4573,VALID,0,VALID,23.0786,VALID,130,VALID,0.346484,
2009-08-13, 01:09:05,VALID,1000.86,VALID,0,VALID,89.4954,VALID,0,VALID,23.0769,VALID,36,VALID,0.637109,
2009-08-13, 01:10:05,VALID,1000.92,VALID,0,VALID,89.4344,VALID,0,VALID,23.0573,VALID,25,VALID,0.332422,
2009-08-13, 01:11:05,VALID,1000.88,VALID,0,VALID,89.4649,VALID,0,VALID,23.0378,VALID,25,VALID,0.322266,
2009-08-13, 01:12:05,VALID,1000.93,VALID,0,VALID,89.6328,VALID,0,VALID,23.0786,VALID,343,VALID,0.451172,
2009-08-13, 01:13:05,VALID,1000.94,VALID,0,VALID,89.5794,VALID,0,VALID,23.0378,VALID,343,VALID,0.296484,
2009-08-13, 01:14:05,VALID,1000.9,VALID,0,VALID,89.5946,VALID,0,VALID,23.0201,VALID,343,VALID,0.346875,
2009-08-13, 01:15:05,VALID,1000.91,VALID,0,VALID,89.5031,VALID,0,VALID,23.0396,VALID,123,VALID,0.413672,
2009-08-13, 01:16:05,VALID,1000.89,VALID,0,VALID,89.1292,VALID,0,VALID,23.0396,VALID,152,VALID,0.909766,
2009-08-13, 01:17:05,VALID,1000.88,VALID,0,VALID,88.8698,VALID,0,VALID,23.0786,VALID,162,VALID,1.00391,
2009-08-13, 01:18:05,VALID,1000.9,VALID,0,VALID,88.5951,VALID,0,VALID,23.1762,VALID,175,VALID,0.978125,
2009-08-13, 01:19:05,VALID,1000.9,VALID,0,VALID,87.9161,VALID,0,VALID,23.2524,VALID,171,VALID,1.05586,
2009-08-13, 01:20:05,VALID,1000.88,VALID,0,VALID,87.2905,VALID,0,VALID,23.3518,VALID,170,VALID,0.945313,
2009-08-13, 01:21:05,VALID,1000.85,VALID,0,VALID,86.6115,VALID,0,VALID,23.4085,VALID,165,VALID,1.20391,
2009-08-13, 01:22:05,VALID,1000.86,VALID,0,VALID,85.4517,VALID,0,VALID,23.5274,VALID,158,VALID,1.10664,
2009-08-13, 01:23:05,VALID,1000.85,VALID,0,VALID,84.4828,VALID,0,VALID,23.6036,VALID,155,VALID,1.3793,
2009-08-13, 01:24:05,VALID,1000.84,VALID,0,VALID,83.9563,VALID,0,VALID,23.7012,VALID,170,VALID,1.26094,
2009-08-13, 01:25:05,VALID,1000.82,VALID,0,VALID,83.4223,VALID,0,VALID,23.7811,VALID,173,VALID,1.27578,
2009-08-13, 01:26:05,VALID,1000.77,VALID,0,VALID,82.8043,VALID,0,VALID,23.8396,VALID,177,VALID,1.56328,
2009-08-13, 01:27:05,VALID,1000.76,VALID,0,VALID,82.3007,VALID,0,VALID,23.8963,VALID,167,VALID,1.43281,
2009-08-13, 01:28:05,VALID,1000.77,VALID,0,VALID,82.11,VALID,0,VALID,23.9549,VALID,182,VALID,2.0375,
2009-08-13, 01:29:05,VALID,1000.74,VALID,0,VALID,81.1715,VALID,0,VALID,24.072,VALID,182,VALID,1.61484,
2009-08-13, 01:30:05,VALID,1000.73,VALID,0,VALID,81.2249,VALID,0,VALID,24.15,VALID,168,VALID,1.23047,
2009-08-13, 01:31:05,VALID,1000.73,VALID,0,VALID,81.2478,VALID,0,VALID,24.15,VALID,164,VALID,1.04766,
2009-08-13, 01:32:05,VALID,1000.7,VALID,0,VALID,80.9808,VALID,0,VALID,24.111,VALID,167,VALID,0.973047,
2009-08-13, 01:33:05,VALID,1000.7,VALID,0,VALID,81.1715,VALID,0,VALID,24.072,VALID,153,VALID,0.75625,
2009-08-13, 01:34:05,VALID,1000.69,VALID,0,VALID,81.4004,VALID,0,VALID,23.9939,VALID,129,VALID,0.835547,
2009-08-13, 01:35:05,VALID,1000.7,VALID,0,VALID,81.2326,VALID,0,VALID,23.9354,VALID,141,VALID,1.38359,
2009-08-13, 01:36:05,VALID,1000.7,VALID,0,VALID,81.5378,VALID,0,VALID,23.9372,VALID,131,VALID,1.13008,
2009-08-13, 01:37:05,VALID,1000.7,VALID,0,VALID,81.7056,VALID,0,VALID,23.8963,VALID,131,VALID,1.08281,
2009-08-13, 01:38:05,VALID,1000.69,VALID,0,VALID,81.7895,VALID,0,VALID,23.8786,VALID,124,VALID,0.976172,
2009-08-13, 01:39:05,VALID,1000.7,VALID,0,VALID,82.0642,VALID,0,VALID,23.8201,VALID,118,VALID,0.883984,
2009-08-13, 01:40:05,VALID,1000.7,VALID,0,VALID,82.8272,VALID,0,VALID,23.703,VALID,112,VALID,0.738672,
2009-08-13, 01:41:05,VALID,1000.68,VALID,0,VALID,83.4833,VALID,0,VALID,23.625,VALID,93,VALID,0.657031,
2009-08-13, 01:42:05,VALID,1000.67,VALID,0,VALID,84.643,VALID,0,VALID,23.5061,VALID,66,VALID,0.642187,
2009-08-13, 01:43:05,VALID,1000.68,VALID,0,VALID,85.0703,VALID,0,VALID,23.4085,VALID,66,VALID,0.546094,
2009-08-13, 01:44:05,VALID,1000.64,VALID,0,VALID,85.4975,VALID,0,VALID,23.2932,VALID,52,VALID,0.744531,
2009-08-13, 01:45:05,VALID,1000.64,VALID,0,VALID,86.9243,VALID,0,VALID,23.1566,VALID,49,VALID,0.782422,
2009-08-13, 01:46:05,VALID,1000.66,VALID,0,VALID,87.1989,VALID,0,VALID,23.0378,VALID,49,VALID,0.682031,
2009-08-13, 01:47:05,VALID,1000.68,VALID,0,VALID,87.4736,VALID,0,VALID,22.9615,VALID,51,VALID,0.598437,
2009-08-13, 01:48:05,VALID,1000.68,VALID,0,VALID,87.8627,VALID,0,VALID,22.864,VALID,52,VALID,0.5125,
2009-08-13, 01:49:05,VALID,1000.67,VALID,0,VALID,88.0916,VALID,0,VALID,22.7647,VALID,52,VALID,0.557422,
2009-08-13, 01:50:05,VALID,1000.65,VALID,0,VALID,88.5494,VALID,0,VALID,22.7274,VALID,52,VALID,0.582422,
2009-08-13, 01:51:05,VALID,1000.63,VALID,0,VALID,88.9003,VALID,0,VALID,22.6477,VALID,53,VALID,0.796484,
2009-08-13, 01:52:05,VALID,1000.64,VALID,0,VALID,89.2132,VALID,0,VALID,22.6299,VALID,53,VALID,0.838281,
2009-08-13, 01:53:05,VALID,1000.61,VALID,0,VALID,88.824,VALID,0,VALID,22.5909,VALID,53,VALID,0.912891,
2009-08-13, 01:54:05,VALID,1000.62,VALID,0,VALID,89.381,VALID,0,VALID,22.5128,VALID,53,VALID,1.0375,
2009-08-13, 01:55:05,VALID,1000.65,VALID,0,VALID,89.236,VALID,0,VALID,22.4543,VALID,45,VALID,1.2457,
2009-08-13, 01:56:05,VALID,1000.68,VALID,0,VALID,89.5031,VALID,0,VALID,22.3551,VALID,58,VALID,0.960938,
2009-08-13, 01:57:05,VALID,1000.67,VALID,0,VALID,89.8617,VALID,0,VALID,22.3568,VALID,73,VALID,0.856641,
2009-08-13, 01:58:05,VALID,1000.65,VALID,0,VALID,90.3576,VALID,0,VALID,22.3178,VALID,57,VALID,1.11523,
2009-08-13, 01:59:05,VALID,1000.64,VALID,0,VALID,90.2813,VALID,0,VALID,22.2983,VALID,37,VALID,1.45859,
2009-08-13, 02:00:05,VALID,1000.68,VALID,0,VALID,89.9151,VALID,0,VALID,22.2397,VALID,38,VALID,1.03594,
2009-08-13, 02:01:05,VALID,1000.72,VALID,0,VALID,90.2203,VALID,0,VALID,22.1405,VALID,63,VALID,0.65625,
2009-08-13, 02:02:05,VALID,1000.69,VALID,0,VALID,90.762,VALID,0,VALID,22.121,VALID,63,VALID,0.773438,
2009-08-13, 02:03:05,VALID,1000.68,VALID,0,VALID,90.823,VALID,0,VALID,22.1617,VALID,50,VALID,0.850781,
2009-08-13, 02:04:05,VALID,1000.67,VALID,0,VALID,90.8535,VALID,0,VALID,22.121,VALID,42,VALID,0.602734,
2009-08-13, 02:05:05,VALID,1000.64,VALID,0,VALID,90.7849,VALID,0,VALID,22.1227,VALID,41,VALID,0.409766,
2009-08-13, 02:06:05,VALID,1000.65,VALID,0,VALID,90.7543,VALID,0,VALID,22.0625,VALID,41,VALID,0.0972656,
2009-08-13, 02:07:05,VALID,1000.64,VALID,0,VALID,90.8154,VALID,0,VALID,22.0447,VALID,41,VALID,0.180859,
2009-08-13, 02:08:05,VALID,1000.66,VALID,0,VALID,90.9451,VALID,0,VALID,22.004,VALID,41,VALID,0.0765625,
2009-08-13, 02:09:05,VALID,1000.67,VALID,0,VALID,91.1053,VALID,0,VALID,22.0057,VALID,38,VALID,0.409766,
2009-08-13, 02:10:05,VALID,1000.67,VALID,0,VALID,91.2045,VALID,0,VALID,21.9845,VALID,31,VALID,0.529688,
2009-08-13, 02:11:05,VALID,1000.69,VALID,0,VALID,91.2884,VALID,0,VALID,22.0057,VALID,25,VALID,0.659766,
2009-08-13, 02:12:05,VALID,1000.68,VALID,0,VALID,91.3342,VALID,0,VALID,21.965,VALID,12,VALID,0.745313,
2009-08-13, 02:13:05,VALID,1000.69,VALID,0,VALID,91.4105,VALID,0,VALID,21.9438,VALID,8,VALID,0.889453,
2009-08-13, 02:14:04,VALID,1000.67,VALID,0,VALID,91.235,VALID,0.112286,VALID,21.9048,VALID,4,VALID,0.812109,
2009-08-13, 02:15:04,VALID,1000.66,VALID,0,VALID,91.4639,VALID,0,VALID,21.9065,VALID,1,VALID,0.529297,
2009-08-13, 02:16:04,VALID,1000.64,VALID,0,VALID,91.5478,VALID,0,VALID,21.887,VALID,1,VALID,0.186719,
2009-08-13, 02:17:04,VALID,1000.62,VALID,0,VALID,91.5478,VALID,0.112286,VALID,21.8658,VALID,1,VALID,0.279687,
2009-08-13, 02:18:04,VALID,1000.63,VALID,0,VALID,91.6165,VALID,0,VALID,21.8463,VALID,1,VALID,0.1125,
2009-08-13, 02:19:04,VALID,1000.6,VALID,0,VALID,91.7233,VALID,0.112286,VALID,21.8675,VALID,1,VALID,0.337109,
2009-08-13, 02:20:04,VALID,1000.61,VALID,0,VALID,91.7385,VALID,0.112286,VALID,21.8658,VALID,21,VALID,0.396094,
2009-08-13, 02:21:04,VALID,1000.58,VALID,0,VALID,91.7385,VALID,0,VALID,21.8658,VALID,21,VALID,0.204688,
2009-08-13, 02:22:04,VALID,1000.6,VALID,0,VALID,91.7691,VALID,0.112286,VALID,21.8463,VALID,21,VALID,0.0492188,
2009-08-13, 02:23:04,VALID,1000.59,VALID,0,VALID,91.7691,VALID,0,VALID,21.887,VALID,21,VALID,0.06875,
2009-08-13, 02:24:04,VALID,1000.59,VALID,0,VALID,91.7843,VALID,0,VALID,21.8675,VALID,21,VALID,0.244922,
2009-08-13, 02:25:04,VALID,1000.63,VALID,0,VALID,91.8225,VALID,0.112286,VALID,21.8463,VALID,21,VALID,0.321484,
2009-08-13, 02:26:04,VALID,1000.59,VALID,0,VALID,91.8606,VALID,0,VALID,21.8463,VALID,20,VALID,0.492188,
2009-08-13, 02:27:04,VALID,1000.6,VALID,0,VALID,91.9903,VALID,0,VALID,21.8675,VALID,5,VALID,0.426562,
2009-08-13, 02:28:04,VALID,1000.56,VALID,0,VALID,91.9751,VALID,0,VALID,21.8887,VALID,5,VALID,0.411719,
2009-08-13, 02:29:04,VALID,1000.56,VALID,0,VALID,91.9369,VALID,0,VALID,21.8692,VALID,5,VALID,0.162109,
2009-08-13, 02:30:04,VALID,1000.57,VALID,0,VALID,91.8454,VALID,0,VALID,21.8285,VALID,5,VALID,0.260156,
2009-08-13, 02:31:04,VALID,1000.56,VALID,0,VALID,91.9293,VALID,0,VALID,21.809,VALID,5,VALID,0.4125,
2009-08-13, 02:32:04,VALID,1000.55,VALID,0,VALID,91.9827,VALID,0,VALID,21.809,VALID,5,VALID,0.336719,
2009-08-13, 02:33:04,VALID,1000.52,VALID,0,VALID,92.059,VALID,0,VALID,21.8301,VALID,5,VALID,0.371484,
2009-08-13, 02:34:04,VALID,1000.54,VALID,0,VALID,91.9751,VALID,0,VALID,21.7895,VALID,5,VALID,0.383203,
2009-08-13, 02:35:04,VALID,1000.55,VALID,0,VALID,91.9598,VALID,0,VALID,21.77,VALID,5,VALID,0.376563,
2009-08-13, 02:36:04,VALID,1000.55,VALID,0,VALID,92.0514,VALID,0,VALID,21.7505,VALID,5,VALID,0.275,
2009-08-13, 02:37:04,VALID,1000.54,VALID,0,VALID,92.0666,VALID,0,VALID,21.7521,VALID,5,VALID,0.233984,
2009-08-13, 02:38:04,VALID,1000.52,VALID,0,VALID,92.2116,VALID,0,VALID,21.7716,VALID,5,VALID,0.263281,
2009-08-13, 02:39:04,VALID,1000.53,VALID,0,VALID,92.204,VALID,0,VALID,21.7505,VALID,5,VALID,0.417578,
2009-08-13, 02:40:04,VALID,1000.52,VALID,0,VALID,92.3566,VALID,0,VALID,21.7895,VALID,356,VALID,0.451562,
2009-08-13, 02:41:04,VALID,1000.54,VALID,0,VALID,92.4023,VALID,0,VALID,21.809,VALID,356,VALID,0.335547,
2009-08-13, 02:42:04,VALID,1000.54,VALID,0,VALID,92.3642,VALID,0,VALID,21.8301,VALID,356,VALID,0.34375,
2009-08-13, 02:43:04,VALID,1000.57,VALID,0,VALID,92.4023,VALID,0,VALID,21.8285,VALID,356,VALID,0.347266,
2009-08-13, 02:44:04,VALID,1000.54,VALID,0,VALID,92.3413,VALID,0,VALID,21.8285,VALID,356,VALID,0.320313,
2009-08-13, 02:45:04,VALID,1000.55,VALID,0,VALID,92.2879,VALID,0,VALID,21.8496,VALID,356,VALID,0.192188,
2009-08-13, 02:46:04,VALID,1000.55,VALID,0,VALID,92.2421,VALID,0,VALID,21.8496,VALID,356,VALID,0.0550781,
2009-08-13, 02:47:04,VALID,1000.58,VALID,0,VALID,92.1963,VALID,0,VALID,21.809,VALID,356,VALID,0,
2009-08-13, 02:48:04,VALID,1000.57,VALID,0,VALID,92.2421,VALID,0,VALID,21.7895,VALID,356,VALID,0,
2009-08-13, 02:49:04,VALID,1000.59,VALID,0,VALID,92.2726,VALID,0,VALID,21.8106,VALID,356,VALID,0.188672,
2009-08-13, 02:50:04,VALID,1000.56,VALID,0,VALID,92.3337,VALID,0,VALID,21.809,VALID,356,VALID,0.264844,
2009-08-13, 02:51:04,VALID,1000.58,VALID,0,VALID,92.3031,VALID,0,VALID,21.809,VALID,356,VALID,0.0761719,
2009-08-13, 02:52:04,VALID,1000.55,VALID,0,VALID,92.3108,VALID,0,VALID,21.8106,VALID,356,VALID,0,
2009-08-13, 02:53:04,VALID,1000.52,VALID,0,VALID,92.3031,VALID,0,VALID,21.7895,VALID,356,VALID,0,
2009-08-13, 02:54:04,VALID,1000.5,VALID,0,VALID,92.4328,VALID,0,VALID,21.7895,VALID,356,VALID,0,
2009-08-13, 02:55:04,VALID,1000.52,VALID,0,VALID,92.5168,VALID,0,VALID,21.809,VALID,356,VALID,0,
2009-08-13, 02:56:04,VALID,1000.49,VALID,0,VALID,92.4405,VALID,0,VALID,21.8285,VALID,356,VALID,0,
2009-08-13, 02:57:04,VALID,1000.5,VALID,0,VALID,92.3566,VALID,0,VALID,21.809,VALID,356,VALID,0,
2009-08-13, 02:58:04,VALID,1000.5,VALID,0,VALID,92.326,VALID,0,VALID,21.7895,VALID,356,VALID,0,
2009-08-13, 02:59:04,VALID,1000.5,VALID,0,VALID,92.3337,VALID,0,VALID,21.77,VALID,356,VALID,0,
2009-08-13, 03:00:04,VALID,1000.48,VALID,0,VALID,92.3794,VALID,0,VALID,21.7911,VALID,356,VALID,0.219922,
2009-08-13, 03:01:04,VALID,1000.44,VALID,0,VALID,92.2879,VALID,0,VALID,21.77,VALID,356,VALID,0.328906,
2009-08-13, 03:02:04,VALID,1000.49,VALID,0,VALID,92.4252,VALID,0,VALID,21.7505,VALID,356,VALID,0.323438,
2009-08-13, 03:03:04,VALID,1000.47,VALID,0,VALID,92.4863,VALID,0,VALID,21.7521,VALID,356,VALID,0.248828,
2009-08-13, 03:04:04,VALID,1000.47,VALID,0,VALID,92.3947,VALID,0,VALID,21.7326,VALID,356,VALID,0.0691406,
2009-08-13, 03:05:04,VALID,1000.49,VALID,0,VALID,92.3108,VALID,0,VALID,21.692,VALID,356,VALID,0,
2009-08-13, 03:06:04,VALID,1000.5,VALID,0,VALID,92.4328,VALID,0,VALID,21.653,VALID,356,VALID,0.16875,
2009-08-13, 03:07:04,VALID,1000.49,VALID,0,VALID,92.5854,VALID,0,VALID,21.6725,VALID,356,VALID,0.419141,
2009-08-13, 03:08:04,VALID,1000.52,VALID,0,VALID,92.6312,VALID,0,VALID,21.692,VALID,356,VALID,0.603516,
2009-08-13, 03:09:04,VALID,1000.52,VALID,0,VALID,92.7533,VALID,0,VALID,21.7115,VALID,356,VALID,0.495313,
2009-08-13, 03:10:04,VALID,1000.53,VALID,0,VALID,92.8754,VALID,0,VALID,21.77,VALID,356,VALID,0.294141,
2009-08-13, 03:11:04,VALID,1000.55,VALID,0,VALID,92.8448,VALID,0,VALID,21.7911,VALID,356,VALID,0.213672,
2009-08-13, 03:12:04,VALID,1000.52,VALID,0,VALID,92.7457,VALID,0,VALID,21.7895,VALID,356,VALID,0.211719,
2009-08-13, 03:13:04,VALID,1000.55,VALID,0,VALID,92.5702,VALID,0,VALID,21.7716,VALID,356,VALID,0.181641,
2009-08-13, 03:14:04,VALID,1000.52,VALID,0,VALID,92.6007,VALID,0,VALID,21.7716,VALID,356,VALID,0.335156,
2009-08-13, 03:15:04,VALID,1000.51,VALID,0,VALID,92.5244,VALID,0,VALID,21.7326,VALID,356,VALID,0.374219,
2009-08-13, 03:16:04,VALID,1000.53,VALID,0,VALID,92.5626,VALID,0,VALID,21.6725,VALID,356,VALID,0.437109,
2009-08-13, 03:17:04,VALID,1000.51,VALID,0,VALID,92.7914,VALID,0,VALID,21.6936,VALID,356,VALID,0.46875,
2009-08-13, 03:18:04,VALID,1000.49,VALID,0,VALID,92.8525,VALID,0,VALID,21.6725,VALID,356,VALID,0.397656,
2009-08-13, 03:19:04,VALID,1000.49,VALID,0,VALID,92.7914,VALID,0,VALID,21.6725,VALID,356,VALID,0.263281,
2009-08-13, 03:20:04,VALID,1000.49,VALID,0,VALID,92.6923,VALID,0,VALID,21.6741,VALID,356,VALID,0.355469,
2009-08-13, 03:21:04,VALID,1000.5,VALID,0,VALID,92.6999,VALID,0,VALID,21.6351,VALID,356,VALID,0.460938,
2009-08-13, 03:22:04,VALID,1000.49,VALID,0,VALID,92.5931,VALID,0,VALID,21.5961,VALID,356,VALID,0.457812,
2009-08-13, 03:23:04,VALID,1000.5,VALID,0,VALID,92.6923,VALID,0,VALID,21.5555,VALID,356,VALID,0.360547,
2009-08-13, 03:24:04,VALID,1000.48,VALID,0,VALID,92.8525,VALID,0,VALID,21.536,VALID,356,VALID,0.225,
2009-08-13, 03:25:04,VALID,1000.5,VALID,0,VALID,92.8754,VALID,0,VALID,21.5165,VALID,356,VALID,0.225,
2009-08-13, 03:26:04,VALID,1000.49,VALID,0,VALID,92.9745,VALID,0,VALID,21.5165,VALID,10,VALID,0.672266,
2009-08-13, 03:27:04,VALID,1000.47,VALID,0,VALID,93.0127,VALID,0,VALID,21.5165,VALID,22,VALID,0.811328,
2009-08-13, 03:28:04,VALID,1000.44,VALID,0,VALID,93.0203,VALID,0,VALID,21.5165,VALID,22,VALID,0.828125,
2009-08-13, 03:29:04,VALID,1000.4,VALID,0,VALID,92.8067,VALID,0,VALID,21.4775,VALID,23,VALID,0.938672,
2009-08-13, 03:30:04,VALID,1000.4,VALID,0,VALID,92.4863,VALID,0,VALID,21.3995,VALID,41,VALID,0.829687,
2009-08-13, 03:31:04,VALID,1000.35,VALID,0,VALID,93.1729,VALID,0,VALID,21.38,VALID,57,VALID,0.891797,
2009-08-13, 03:32:04,VALID,1000.33,VALID,0,VALID,93.295,VALID,0,VALID,21.419,VALID,57,VALID,1.01367,
2009-08-13, 03:33:04,VALID,1000.34,VALID,0,VALID,93.1195,VALID,0,VALID,21.3995,VALID,63,VALID,1.07422,
2009-08-13, 03:34:04,VALID,1000.35,VALID,0,VALID,92.8906,VALID,0,VALID,21.38,VALID,74,VALID,1.28437,
2009-08-13, 03:35:04,VALID,1000.33,VALID,0,VALID,93.2034,VALID,0,VALID,21.38,VALID,68,VALID,1.6375,
2009-08-13, 03:36:04,VALID,1000.34,VALID,0,VALID,93.2568,VALID,0,VALID,21.4206,VALID,67,VALID,1.42773,
2009-08-13, 03:37:04,VALID,1000.36,VALID,0,VALID,93.234,VALID,0,VALID,21.3995,VALID,67,VALID,1.32422,
2009-08-13, 03:38:04,VALID,1000.37,VALID,0,VALID,93.0127,VALID,0,VALID,21.38,VALID,66,VALID,1.19023,
2009-08-13, 03:39:04,VALID,1000.37,VALID,0,VALID,93.028,VALID,0,VALID,21.3605,VALID,78,VALID,1.19961,
2009-08-13, 03:40:04,VALID,1000.37,VALID,0,VALID,93.0508,VALID,0,VALID,21.3621,VALID,77,VALID,1.06562,
2009-08-13, 03:41:04,VALID,1000.4,VALID,0,VALID,93.0661,VALID,0,VALID,21.341,VALID,69,VALID,0.913281,
2009-08-13, 03:42:04,VALID,1000.37,VALID,0,VALID,93.0737,VALID,0,VALID,21.3426,VALID,68,VALID,0.915234,
2009-08-13, 03:43:04,VALID,1000.35,VALID,0,VALID,92.9517,VALID,0,VALID,21.3215,VALID,52,VALID,0.837109,
2009-08-13, 03:44:04,VALID,1000.36,VALID,0,VALID,92.944,VALID,0,VALID,21.2825,VALID,49,VALID,0.884375,
2009-08-13, 03:45:04,VALID,1000.34,VALID,0,VALID,93.1271,VALID,0,VALID,21.3036,VALID,48,VALID,0.927344,
2009-08-13, 03:46:04,VALID,1000.33,VALID,0,VALID,93.0356,VALID,0,VALID,21.263,VALID,48,VALID,0.755469,